This is the latest recevied weather packets stored in our database for station/object DG0PX-12. If no packets are shown the sender has not sent any weather packets the latest 10 day(s).
| Time | Temp. | Humidity | Pressure | Rain* | Wind** | Luminosity | Snow |
|---|---|---|---|---|---|---|---|
| 1777639478 | 21.67° C | 22% | 958 hPa | - | - | - | - |
| 1777638578 | 21.11° C | 22% | 958.4 hPa | - | - | - | - |
| 1777637678 | 21.11° C | 22% | 958.4 hPa | - | - | - | - |
| 1777636778 | 21.67° C | 22% | 958.3 hPa | - | - | - | - |
| 1777635877 | 20.56° C | 23% | 958.4 hPa | - | - | - | - |
| 1777634977 | 21.67° C | 22% | 958.5 hPa | - | - | - | - |
| 1777634077 | 18.89° C | 25% | 958.7 hPa | - | - | - | - |
| 1777633177 | 20.56° C | 25% | 958.7 hPa | - | - | - | - |
| 1777632277 | 19.44° C | 25% | 958.9 hPa | - | - | - | - |
| 1777631377 | 18.33° C | 26% | 958.9 hPa | - | - | - | - |
| 1777630476 | 18.33° C | 27% | 958.9 hPa | - | - | - | - |
| 1777629576 | 16.11° C | 30% | 959 hPa | - | - | - | - |
| 1777628676 | 15.56° C | 29% | 959.1 hPa | - | - | - | - |
| 1777627776 | 15° C | 29% | 959.2 hPa | - | - | - | - |
| 1777626876 | 15° C | 28% | 959.3 hPa | - | - | - | - |
| 1777625976 | 13.89° C | 26% | 959.5 hPa | - | - | - | - |
| 1777625076 | 13.33° C | 28% | 959.4 hPa | - | - | - | - |
| 1777624175 | 12.78° C | 27% | 959.5 hPa | - | - | - | - |
| 1777623275 | 13.33° C | 28% | 959.4 hPa | - | - | - | - |
| 1777622375 | 11.67° C | 29% | 959.5 hPa | - | - | - | - |
| 1777621475 | 11.67° C | 30% | 959.4 hPa | - | - | - | - |
| 1777620575 | 11.67° C | 34% | 959.3 hPa | - | - | - | - |
| 1777619674 | 11.67° C | 35% | 959.1 hPa | - | - | - | - |
| 1777618774 | 10° C | 38% | 959.1 hPa | - | - | - | - |
| 1777617874 | 9.44° C | 39% | 958.8 hPa | - | - | - | - |
* Rain since midnight (hover to see other rain measurements)
** Current wind speed in m/s (hover to see current wind gust speed)